User: anonymous   Login
Location: Arena
(42.5007°N, 9.4650°E)
Time: 00:46:35
(UTC+00:00)
Language:

Cosmos 2154 Rocket - Orbit

View from above orbital plane
View from above orbital plane
View from above satellite
View from above satellite

Ground track
Ground track

The orbit data is extracted from the following two-line orbital elements,

1 21667U 91059B   20188.46830292 +.00000006 +00000-0 -95806-5 0  9999
2 21667 082.9061 258.5758 0021344 028.6355 341.8844 13.75102922448700
Epoch (UTC): 06 July 2020 11:14:21
Eccentricity: 0.0021344
inclination: 82.9061°
perigee height: 965 km
apogee height: 997 km
right ascension of ascending node: 258.5758°
argument of perigee: 28.6355°
revolutions per day: 13.75102922
mean anomaly at epoch: 341.8844°
orbit number at epoch: 44870

The dashed part of the orbit path shows where the satellite is in the earth's shadow,  

DLR